Vertical_Velocity
-2 -1 -1 -1 -3 -3 -1 -1 -3 -2 -3 -4 -2 -2 0 -2 -1 -1 0 0 -2 -2 1 -0 -1 -1 -1 -1 -1 0 -0 1 1 1 1 2 1 1 1 -1 -1 0 -0
-1 -2 -2 1 2 -3 -6 -3 -1 -4 2 -0 -2 -1 -1 0 0 -0 -0 -1 -1 -1 -1 0 -0 0 -1 -1 -0 -1 -1 -1 -0 0 1 2 2 2 1 1 1 1 0
-0 -1 0 -1 -2 -0 3 -2 -2 1 -1 -3 3 2 -1 1 1 -1 -0 0 -1 1 -1 -1 1 2 2 1 -1 -2 -0 -1 -1 -1 -0 -2 -1 1 1 1 -0 1 1
-4 -0 2 2 -0 -0 -3 2 3 -0 -3 0 -1 2 2 -1 0 5 5 5 2 1 2 -0 -1 2 1 0 1 1 -1 1 1 3 -2 -0 -1 -0 1 -0 -0 -1 -1
-1 -0 -1 2 1 -0 -3 -3 0 -3 4 -2 -4 2 0 1 1 -3 2 4 -1 5 5 2 2 3 0 0 -0 -1 -1 -1 3 5 2 -1 -1 -3 -1 0 0 0 1
-1 -1 -3 -1 -2 0 -0 -2 -5 1 -4 0 1 -2 0 2 -0 1 -0 -1 0 6 5 10 -1 3 1 -1 1 -1 -0 2 2 2 -2 3 9 1 -1 -1 -0 -1 0
-2 -4 -3 -1 -3 -1 -1 -2 -1 -4 3 -2 -10 2 5 -1 4 -0 2 4 0 2 1 7 8 4 1 6 4 1 2 -2 -1 -1 -1 1 2 6 1 -1 -1 -1 -2
-1 -0 -1 -1 -1 -1 -2 0 1 4 1 1 1 -7 5 11 10 6 6 5 4 -1 0 3 7 2 6 0 6 -1 -0 -1 -2 -0 1 -3 -2 8 -1 1 0 -1 -1
-1 0 0 -1 -1 0 3 1 -1 -2 0 1 -8 -4 1 3 6 4 5 7 7 3 6 -1 6 0 2 -1 0 2 -1 -2 -1 -2 -2 1 2 2 -0 1 -0 5 -2
-1 -1 0 1 2 1 -1 -0 -2 -1 -8 -3 -4 -9 -4 -3 -3 7 3 5 7 5 7 5 4 1 0 3 2 0 0 -0 0 -1 -3 0 0 2 -2 -0 8 13 6
1 1 -0 -1 -2 0 0 1 -0 -5 -12 -6 -8 -2 -2 -1 2 1 11 8 0 4 -2 2 3 4 6 4 4 0 -2 -1 -1 -3 -2 -1 2 1 2 1 -3 1 5
-0 1 1 2 -1 -1 2 -0 -6 -6 -8 -10 -6 -6 -4 -2 1 -1 1 16 -2 1 4 4 3 0 -1 0 1 -1 -2 -2 -6 1 1 -2 -1 -1 2 2 2 1 -2
1 2 0 -3 -1 1 -2 -5 -5 -7 -9 -11 -6 -6 -2 -2 -0 -1 1 9 4 4 2 3 5 7 3 1 3 2 2 1 -0 -5 -3 -4 -3 -2 -2 -1 1 -1 -1
3 -2 -3 4 3 1 -4 -4 -3 -6 -8 -5 -7 -6 -2 -3 -1 1 -0 6 1 1 -2 1 -2 -1 3 2 2 1 2 -1 -5 -2 -5 0 -1 -2 -2 -0 1 1 1
-3 -3 5 2 -2 -2 -3 -3 -5 -5 -5 -5 -6 -4 -5 -3 -3 -2 3 9 4 1 -1 -7 -1 -2 2 2 -2 -0 -0 -1 1 -1 -6 -3 -5 3 2 -1 2 1 -3
-2 4 1 -1 -1 -2 -4 -4 -3 -3 -3 -5 -4 -3 -5 -4 -1 -2 -0 1 3 2 7 3 3 -4 -4 -2 -6 -1 2 2 -1 -3 1 3 2 -2 -4 -5 -3 0 1
3 1 -1 -1 -2 -3 -3 -2 -3 -2 -2 -2 -3 -1 2 0 -1 -1 -1 0 1 3 5 -0 -3 -0 -4 -1 -2 -2 0 -0 -2 -3 -3 0 2 1 -0 -3 -5 -8 -3
1 -2 -1 -2 -2 -2 -1 -1 -3 -3 -2 -2 -2 -2 -2 -2 0 3 2 1 -0 -1 -2 -3 -2 -2 -1 1 1 -0 -3 -1 -3 0 2 -0 -1 -0 1 1 0 -1 -3
-0 -1 -0 -1 -2 -3 -1 -2 -3 -3 -1 -1 0 -1 -1 0 -0 -1 -1 1 1 2 3 3 4 4 2 2 -2 -3 -3 -5 -1 -1 0 -2 0 1 -1 -1 -2 -3 -2
-1 -2 -1 -2 -3 -3 -3 -2 -3 -4 -3 -2 -1 -1 -0 -2 -2 -1 -1 -1 -3 -2 -1 0 -1 -1 -1 -1 -1 -3 -2 1 -2 1 0 -0 -0 1 -1 -2 0 1 -4
-1 -1 -0 -1 -2 -3 -2 -1 -1 -2 -2 -2 -2 -2 -3 -2 -1 -0 -2 -3 -2 -1 -1 -2 -4 -4 -4 -3 0 0 -6 -7 -3 -3 -1 -1 -1 -3 -3 -5 -4 -6 -7
0 -1 -3 -3 -2 -2 -3 -1 -1 -2 -2 -2 -2 -0 -2 0 -1 -1 -2 -1 -2 -2 -2 -2 -1 1 1 -1 -1 2 2 -1 0 -2 -4 -7 -4 -2 -2 -5 -1 -4 -5
1 1 -1 -1 -1 -1 -0 -0 0 -0 -1 -2 -2 -1 -0 1 0 -1 -0 -2 -2 -1 -0 -0 -0 -0 -1 0 0 -0 1 -0 2 -4 2 -5 -4 -4 -1 -4 -3 -3 -4
-0 -1 -3 -1 -1 -1 -1 1 1 -0 -0 -1 -1 0 -0 0 -0 -1 -1 -1 0 -0 -0 0 1 0 -0 -1 0 -2 0 -1 2 3 -0 3 -1 -4 -1 -2 -3 -4 -2
-1 1 0 -1 -0 -1 -0 1 1 -1 0 0 -1 1 0 -0 -1 -1 -1 -2 -2 -1 0 -1 -1 -0 1 1 1 0 -3 -3 -2 4 -1 2 1 1 -2 -4 -3 -3 -3
2 1 -1 -1 -1 -2 0 -1 1 -0 -2 -1 -1 -2 -0 1 0 1 0 0 0 -1 1 1 1 2 3 2 2 1 -0 -1 -2 2 -4 -1 -1 2 2 -3 -5 -7 -6
Height
5846 5844 5842 5840 5837 5835 5834 5832 5831 5831 5829 5827 5826 5825 5824 5824 5823 5822 5822 5822 5821 5821 5822 5821 5821 5821 5821 5821 5820 5820 5820 5819 5820 5820 5821 5821 5821 5820 5820 5820 5820 5819 5819
5838 5836 5833 5831 5829 5826 5823 5821 5820 5819 5818 5817 5816 5815 5813 5813 5813 5813 5811 5812 5812 5812 5812 5813 5813 5814 5814 5813 5814 5813 5813 5812 5813 5813 5814 5815 5815 5815 5814 5814 5814 5814 5813
5829 5827 5825 5821 5818 5816 5815 5811 5809 5806 5806 5804 5803 5803 5802 5801 5800 5800 5801 5801 5801 5802 5802 5803 5804 5805 5805 5805 5805 5805 5805 5805 5805 5806 5806 5806 5808 5808 5808 5808 5807 5807 5807
5818 5816 5813 5811 5808 5805 5802 5799 5798 5796 5793 5791 5789 5788 5788 5788 5787 5787 5788 5789 5788 5790 5791 5792 5793 5795 5795 5796 5796 5797 5797 5797 5797 5797 5797 5798 5799 5799 5800 5800 5799 5799 5798
5807 5804 5802 5798 5796 5794 5790 5787 5784 5782 5781 5778 5775 5774 5773 5771 5772 5772 5773 5775 5775 5777 5779 5781 5781 5783 5785 5785 5786 5786 5788 5789 5788 5787 5788 5789 5789 5790 5790 5791 5791 5791 5791
5796 5794 5791 5789 5785 5782 5779 5775 5773 5769 5765 5762 5760 5758 5756 5755 5755 5755 5757 5758 5759 5761 5766 5769 5770 5772 5774 5774 5776 5776 5778 5778 5778 5779 5778 5780 5780 5781 5781 5782 5782 5782 5783
5787 5784 5781 5778 5775 5772 5768 5764 5761 5758 5753 5747 5743 5741 5739 5735 5734 5735 5738 5740 5744 5745 5749 5754 5758 5759 5762 5764 5765 5766 5768 5768 5768 5769 5769 5769 5771 5772 5773 5774 5774 5774 5775
5777 5774 5771 5768 5765 5763 5759 5756 5751 5746 5740 5731 5724 5718 5716 5714 5710 5711 5715 5719 5724 5728 5734 5738 5742 5748 5749 5752 5755 5756 5757 5758 5759 5759 5760 5761 5761 5762 5764 5765 5766 5767 5767
5767 5764 5763 5761 5758 5755 5751 5747 5741 5734 5727 5715 5704 5695 5689 5685 5684 5687 5691 5698 5704 5710 5716 5721 5727 5733 5735 5740 5742 5745 5747 5748 5749 5749 5751 5752 5753 5754 5757 5757 5757 5757 5758
5760 5759 5757 5755 5752 5748 5744 5737 5729 5721 5712 5699 5684 5672 5665 5661 5660 5666 5670 5677 5686 5692 5698 5704 5711 5717 5721 5726 5730 5734 5735 5737 5738 5740 5741 5743 5744 5747 5746 5747 5747 5747 5747
5756 5755 5753 5750 5746 5741 5735 5728 5720 5711 5699 5684 5669 5658 5648 5641 5639 5644 5653 5658 5664 5675 5682 5690 5698 5705 5709 5714 5718 5721 5724 5727 5728 5729 5731 5733 5734 5736 5737 5737 5737 5737 5738
5753 5751 5748 5744 5739 5733 5727 5720 5712 5703 5690 5673 5658 5647 5637 5628 5625 5625 5631 5641 5649 5660 5671 5679 5685 5692 5697 5702 5707 5711 5714 5716 5718 5721 5721 5722 5724 5725 5726 5726 5726 5726 5726
5749 5747 5743 5738 5732 5727 5720 5713 5706 5696 5684 5667 5652 5641 5631 5624 5619 5618 5620 5627 5640 5651 5662 5670 5676 5682 5687 5692 5696 5700 5702 5705 5707 5710 5712 5711 5712 5713 5715 5715 5715 5715 5715
5745 5741 5737 5732 5727 5721 5715 5708 5701 5692 5681 5667 5652 5639 5629 5621 5617 5616 5618 5626 5635 5644 5654 5662 5668 5673 5679 5683 5686 5689 5691 5692 5693 5696 5698 5700 5701 5700 5701 5703 5703 5703 5703
5739 5736 5731 5726 5721 5716 5710 5704 5697 5689 5679 5669 5656 5643 5632 5624 5620 5618 5619 5625 5632 5640 5649 5656 5662 5665 5669 5673 5676 5678 5679 5681 5682 5683 5684 5686 5688 5689 5689 5689 5689 5688 5687
5735 5730 5726 5721 5717 5711 5706 5700 5694 5687 5679 5670 5660 5649 5639 5631 5626 5625 5625 5627 5631 5638 5645 5649 5653 5656 5659 5661 5664 5666 5668 5669 5670 5672 5673 5674 5674 5674 5674 5673 5672 5670 5669
5730 5726 5721 5717 5712 5707 5702 5697 5692 5685 5678 5671 5663 5656 5648 5641 5635 5632 5631 5632 5634 5637 5642 5644 5646 5649 5650 5652 5654 5655 5656 5657 5657 5659 5660 5661 5661 5661 5660 5658 5656 5654 5653
5726 5722 5717 5712 5708 5703 5699 5694 5690 5684 5678 5671 5665 5660 5654 5648 5643 5640 5637 5636 5636 5638 5639 5641 5643 5644 5645 5645 5646 5645 5645 5646 5646 5647 5648 5648 5648 5648 5647 5644 5642 5641 5637
5722 5718 5713 5709 5704 5700 5695 5691 5686 5682 5677 5671 5666 5661 5656 5652 5649 5645 5642 5641 5639 5639 5639 5639 5640 5641 5641 5641 5641 5641 5640 5640 5640 5640 5640 5639 5638 5637 5634 5632 5629 5626 5622
5716 5712 5708 5704 5700 5695 5691 5687 5683 5678 5674 5670 5665 5661 5657 5653 5650 5647 5645 5643 5642 5641 5640 5640 5639 5638 5638 5638 5637 5636 5635 5634 5633 5632 5631 5629 5627 5625 5622 5619 5615 5611 5606
5711 5707 5704 5700 5695 5691 5686 5682 5678 5674 5670 5666 5662 5659 5655 5652 5648 5646 5644 5642 5640 5639 5638 5637 5636 5635 5634 5632 5631 5630 5628 5625 5624 5622 5620 5618 5615 5613 5610 5605 5601 5596 5591
5706 5703 5699 5695 5691 5687 5682 5678 5673 5669 5665 5661 5658 5655 5651 5648 5645 5643 5639 5637 5635 5634 5632 5631 5629 5627 5626 5624 5622 5620 5618 5616 5613 5612 5609 5606 5603 5600 5596 5591 5587 5581 5576
5700 5697 5693 5689 5685 5681 5677 5673 5668 5664 5661 5657 5653 5649 5646 5642 5639 5636 5634 5631 5628 5626 5624 5622 5620 5619 5616 5615 5613 5610 5608 5605 5603 5600 5596 5592 5588 5585 5580 5575 5570 5565 5559
5694 5690 5687 5683 5679 5675 5671 5667 5663 5659 5655 5650 5646 5642 5638 5635 5632 5629 5626 5623 5620 5618 5615 5613 5611 5609 5606 5604 5602 5599 5596 5593 5591 5587 5583 5579 5574 5570 5565 5559 5554 5548 5542
5686 5683 5679 5675 5672 5668 5664 5660 5656 5651 5647 5643 5638 5634 5631 5627 5624 5621 5617 5614 5611 5608 5606 5603 5601 5598 5596 5593 5590 5587 5584 5581 5577 5574 5569 5565 5559 5553 5547 5542 5536 5530 5523
5678 5675 5670 5667 5663 5659 5655 5651 5647 5643 5639 5635 5630 5625 5621 5618 5614 5610 5607 5604 5600 5597 5595 5592 5590 5587 5584 5582 5578 5575 5571 5568 5564 5560 5555 5550 5544 5539 5532 5524 5517 5510 5504